Notices

What's New in latest Release from April 7th, 2021:

- Updated Glossary, including Speed of Maximum Gust, and Total Hourly Precipitation

- Updated national and regional climate services offices contacts and prices information

- Addition of station inventory lists for 1981-2010, 1971-2000, and 1961-1990 Normals.

If you haven't already, please take our survey and provide feedback about our website: https://eccc.sondage-survey.ca/f/LanguageSelection.aspx?s=442ca660-fcf1-47c0-95a9-59707d6fd709

Hourly Data Report for December 04, 2019

EUREKA CLIMATE
NUNAVUT
Current Station Operator: ECCC - MSC

79°59'21.000" N
85°56'02.000" W
10.00 m
2401199
71613
NEK

Download Data

Hourly Data (December 2019)
Hourly Data Report for December 4, 2019
TIME
LST
Temp Definition
°C
Dew Point Definition
°C
Rel Hum Definition
%
Precip. Amount Definition
mm

Wind Dir Definition
10's deg

Wind Spd Definition
km/h
Visibility Definition
km
Stn Press Definition
kPa
Hmdx Definition


Wind Chill Definition


Weather Definition


00:00 -33.8 -37.1 72 0.0 3 3   99.13   -37 LegendNANA
01:00 -34.0 -37.3 72 0.0 11 7   99.16   -42 LegendNANA
02:00 -32.6 -35.8 73 0.0 6 3   99.24   -36 LegendNANA
03:00 -31.9 -35.0 74 0.0 12 5   99.29   -38 LegendNANA
04:00 -30.7 -33.6 75 0.0 18 2   99.34   -33 LegendNANA
05:00 -29.8 -32.6 76 0.0 1 5   99.34   -35 LegendNANA
06:00 -28.5 -31.2 78 0.0 2 5   99.38   -34 LegendNANA
07:00 -28.0 -30.7 78 0.0 13 3   99.40   -31 LegendNANA
08:00 -27.9 -30.5 78 0.0 10 6   99.44   -34 LegendNANA
09:00 -27.6 -30.2 79 0.2 9 5   99.51   -33 LegendNANA
10:00 -27.4 -29.9 79 0.2 11 8   99.59   -35 LegendNANA
11:00 -27.0 -29.5 79 0.2 11 10   99.62   -36 LegendNANA
12:00 -26.9 -29.4 80 0.0 10 10   99.68   -35 LegendNANA
13:00 -26.4 -28.9 80 0.0 11 16   99.72   -37 LegendNANA
14:00 -26.2 -28.6 80 0.0 12 20   99.82   -38 LegendNANA
15:00 -26.0 -28.5 80 0.0 13 17   99.90   -37 LegendNANA
16:00 -25.9 -28.5 79 0.0 12 14   99.96   -36 LegendNANA
17:00 -25.7 -28.3 79 0.0 13 10   100.00   -34 LegendNANA
18:00 -26.0 -28.7 78 0.0 15 7   100.05   -33 LegendNANA
19:00 -27.6 -30.3 78 0.0 25 2   100.09   -30 LegendNANA
20:00 -29.3 -32.1 76 0.2 11 4   100.15   -34 LegendNANA
21:00 -31.0 -33.9 76 0.0 2 9   100.19   -40 LegendNANA
22:00 -29.5 -32.2 77 0.0 9 3   100.22   -33 LegendNANA
23:00 -32.2 -35.3 74 0.0 6 5   100.25   -38 LegendNANA

Notes on Data Quality.

Legend

  • E = Estimated
  • M = Missing
  • NA = Not Available*
  • [empty] = Indicates an unobserved value
Date modified: